Content
SEND FEEDBACK

Daily
Averages
Monthly
Summary
United States of America

NEW YORK - CENTRAL PARK, NEW YORK


Home > North America > United States > New York
Elevation: 14 feet     Latitude: 40 47N     Longitude: 073 58W

WEATHER
 
SELECT A DAY
Number of Records: 148,086;   Date Range: 11/1/95 - 7/26/14
 
SHARE

PRINT THIS DATA

[ ← Previous Day ]
WEATHER ALMANAC - JANUARY 29, 2013
[ Next Day → ]
[ °C ]   °F
Weather ElementAverageHighLow
Temperature41.7 °F48 °F (9:51 am)36 °F (12:58 am)
Dewpoint37.3 °F41 °F (9:33 pm)33.1 °F (12:58 am)
Humidity84.6 %93 % (7:11 pm)71 % (9:51 am)
Barometer30.10 in30.16 in (7:27 pm)30.01 in (1:51 am)
Wind Speed4.2 mph8.1 mph (3:25 pm)
Weather ElementAverage
Visibility4.4 mi
Wind DirectionENE (68.1 °)

Weather ElementTotal
Precipitation0.16 in
Heating Degree Days23 (Base 65)
Averaged from 32 records on January 29, 2013
WEATHER CONDITIONS BREAKOUT
WIND DIRECTION BREAKOUT
WEATHER BY HOUR - JANUARY 29, 2013
[ °C ]   °F
Local TimeTemperatureDewpointHumidityBarometerVisibilityWind DirectionWind SpeedGust SpeedPrecipitationEventsConditions
12:58 AM36.0 °F33.1 °F89 %30.02 in4.0 miVariable5.8 mphOvercast
1:51 AM37.0 °F33.1 °F86 %30.01 in4.0 miNorthOvercast
2:51 AM39.0 °F35.1 °F86 %30.01 in5.0 miVariable5.8 mphOvercast
3:51 AM39.0 °F35.1 °F86 %30.01 in5.0 miCalmOvercast
4:51 AM39.0 °F36.0 °F89 %30.04 in5.0 miNorthOvercast
5:51 AM39.9 °F37.0 °F89 %30.06 in6.0 miNW (310°)3.5 mphOvercast
6:51 AM42.1 °F37.0 °F82 %30.08 in7.0 miNorthOvercast
7:51 AM44.1 °F37.9 °F79 %30.10 in6.0 miVariable4.6 mphHaze
8:51 AM45.0 °F39.0 °F80 %30.11 in7.0 miNorthOvercast
9:51 AM48.0 °F39.0 °F71 %30.12 in8.0 miWNW (300°)3.5 mphOvercast
10:51 AM46.0 °F37.9 °F73 %30.14 in7.0 miEast (100°)6.9 mphOvercast
11:51 AM44.1 °F36.0 °F73 %30.11 in5.0 miEast (80°)5.8 mphHaze
12:51 PM46.0 °F37.0 °F71 %30.11 in5.0 miSE (130°)5.8 mphHaze
1:51 PM44.1 °F36.0 °F73 %30.10 in5.0 miVariable4.6 mphHaze
2:51 PM43.0 °F36.0 °F76 %30.11 in4.0 miEast (100°)5.8 mphHaze
3:25 PM43.0 °F36.0 °F76 %30.13 in4.0 miSSE (160°)8.1 mphHaze
3:49 PM42.8 °F37.4 °F81 %30.12 in5.0 miSouth (170°)4.6 mphHaze
3:51 PM44.1 °F37.0 °F76 %30.10 in5.0 miVariable4.6 mphHaze
4:51 PM43.0 °F37.9 °F82 %30.12 in5.0 miVariable5.8 mphHaze
5:51 PM42.1 °F36.0 °F79 %30.13 in5.0 miESE (110°)6.9 mphHaze
6:37 PM39.9 °F37.0 °F89 %30.13 in2.5 miSE (130°)4.6 mph0.02 inRainLight Rain
7:11 PM39.9 °F37.9 °F93 %30.14 in2.0 miCalm0.02 inRainLight Rain
7:27 PM39.9 °F37.9 °F93 %30.16 in2.5 miCalm0.02 inRainLight Rain
7:36 PM39.9 °F37.9 °F93 %30.16 in2.5 miCalm0.02 inOvercast
7:46 PM39.2 °F37.4 °F93 %30.14 in2.5 miSouth (180°)3.5 mph0.02 inRainLight Rain
7:51 PM41.0 °F39.0 °F93 %30.11 in2.5 miSouth (180°)3.5 mph0.02 inRainRain
8:30 PM42.1 °F39.9 °F92 %30.15 in3.0 miVariable4.6 mph0.02 inOvercast
8:51 PM42.1 °F39.9 °F92 %30.12 in3.0 miVariable3.5 mph0.02 inOvercast
9:33 PM43.0 °F41.0 °F93 %30.14 in4.0 miVariable3.5 mphOvercast
9:51 PM41.0 °F39.0 °F93 %30.11 in2.5 miEast (80°)4.6 mphOvercast
10:51 PM39.9 °F37.9 °F93 %30.10 in2.5 miENE (60°)4.6 mphOvercast
11:51 PM39.9 °F37.9 °F93 %30.09 in3.0 miEast (90°)3.5 mphOvercast
Hourly data recorded from KNYC, located miles away from New York - Central Park, New York







STORIES FROM OUR PARTNERS